[[{"header":{"parameterUnit":"m.s-1","parameterCategory":1,"la1":30.2991,"la2":30.254,"lo1":-89.0895,"lo2":-89.0444,"dy":0.0017,"dx":0.0017,"nx":28,"ny":28,"refTime":"2024-07-13T21:00:00:Z","depth":0,"parameterNumber":2,"parameterNumberName":"U-component_of_WINDS"},"data":[0,0,0,0,0,0,0,0,0,0,0,0,0,0,0,0,0,0,0,0,0,0,0,0,0,0,0,0,0,0,0,0,0,0,0,0,0,0,0,0,0,0,0,0,0,0,0,0,0,0,0,0,0,0,0,0,0,0,2.3736,2.3737,0,2.3822,2.3823,2.3824,2.3782,2.378,2.3777,2.3775,2.3865,2.3869,2.3874,0,0,0,0,0,0,0,0,0,0,0,0,0,2.3537,2.3541,2.3736,2.3737,2.3738,2.3822,2.3823,2.3824,2.3782,2.378,2.3777,2.3774,2.3863,2.3869,2.3874,0,0,0,0,0,0,0,0,0,0,0,0,0,2.3623,2.3542,2.3736,2.3727,2.3727,2.3821,2.3823,2.3824,2.3783,2.3779,2.3776,2.3773,2.3862,2.3868,2.3875,2.3983,0,0,2.3895,2.3898,0,0,0,0,0,0,0,0,2.3618,2.3631,2.3727,2.3728,2.3728,2.3788,2.3785,2.3877,2.3784,2.3762,2.3775,2.3771,2.3842,2.385,2.3874,2.3987,2.3991,2.3896,2.39,2.3903,2.3904,0,0,0,0,0,0,0,2.3612,2.3627,2.377,2.3729,2.3729,2.372,2.3728,2.3803,2.382,2.3763,2.3761,2.3771,2.3842,2.3867,2.3875,2.3992,2.3895,2.3901,2.3906,2.3908,2.4198,2.4201,0,0,0,0,0,0,2.3607,2.3622,2.3767,2.3772,2.3664,2.3726,2.3735,2.3772,2.3819,2.3822,2.3774,2.3769,2.3857,2.3868,2.3878,2.4007,2.3903,2.3909,2.3913,2.4194,2.4199,2.4203,0,0,0,0,0,0,2.3602,2.362,2.3764,2.3696,2.3714,2.3733,2.3774,2.3775,2.3801,2.3827,2.383,2.3797,2.3855,2.3869,2.3957,2.401,2.3912,2.3918,2.419,2.4196,2.4201,2.4266,0,0,0,0,0,0,2.3597,2.3619,2.366,2.3698,2.3718,2.3841,2.3778,2.378,2.3812,2.3807,2.3849,2.3853,2.3854,2.3947,2.3963,2.4017,2.3923,2.4185,2.4192,2.4199,2.426,2.4274,2.4285,0,0,0,0,0,2.359,2.3675,2.3662,2.368,2.3769,2.3844,2.3855,2.3854,2.3817,2.3858,2.3875,2.3851,2.4002,2.3956,2.3975,2.4031,2.4182,2.419,2.4198,2.4254,2.4271,2.4285,0,0,0,0,0,0,2.3643,2.368,2.3666,2.3765,2.3802,2.3836,2.3888,2.3872,2.392,2.3913,2.391,2.392,2.4011,2.403,2.3979,2.4138,2.4086,2.4098,2.4122,2.4138,2.4151,2.4144,2.3929,0,0,0,0,0,2.3666,2.3723,2.3753,2.3838,2.3857,2.387,2.3902,2.3898,2.3936,2.3951,2.3974,2.4012,2.4067,2.4104,2.4157,2.4262,2.4271,2.431,2.4323,2.4334,2.4344,2.4402,2.4419,2.423,2.423,2.423,0,0,2.3715,2.3742,2.3778,2.3849,2.3877,2.3936,2.3883,2.3948,2.3992,2.3961,2.4045,2.4063,2.4105,2.4203,2.4247,2.4221,2.4399,2.4344,2.4353,2.4357,2.4412,2.443,2.4446,2.4236,2.4235,2.4234,0,0,2.3834,2.386,2.3934,2.3963,2.4005,2.4013,2.4031,2.4068,2.4079,2.4163,2.4141,2.4194,2.429,2.4321,2.4349,2.448,2.446,2.4498,2.4565,2.4621,2.4636,2.4649,2.4695,2.4712,2.4508,2.4508,2.4508,0,2.3889,2.3977,2.3974,2.4041,2.4073,2.4047,2.4122,2.415,2.4208,2.423,2.4201,2.4321,2.4348,2.4452,2.4484,2.4508,2.4528,2.4492,2.4634,2.4647,2.4659,2.4703,2.4721,2.4512,2.4512,2.4511,2.4511,0,2.4043,2.4104,2.4159,2.4215,2.4253,2.4323,2.4331,2.437,2.4363,2.4375,2.4461,2.4492,2.455,2.4575,2.4569,2.4678,2.4661,2.4633,2.4581,2.4681,2.4723,2.474,2.4518,2.4517,2.4516,2.4515,0,0,2.4197,2.425,2.427,2.4295,2.434,2.4388,2.4457,2.4514,2.4547,2.4588,2.4647,2.4729,2.4703,2.4735,2.4732,2.4781,2.4883,2.4747,2.4748,2.4771,2.5005,2.5026,2.5045,2.487,2.4874,2.4876,2.5002,0,2.4319,2.444,2.4439,2.4551,2.4608,2.4585,2.4645,2.468,2.4692,2.4743,2.4757,2.4815,2.4777,2.4796,2.4843,2.486,2.493,2.4852,2.4925,2.4927,2.4914,2.5067,2.5089,2.5206,2.5018,2.5021,2.5023,0,2.4476,2.4522,2.4639,2.4676,2.47,2.4754,2.4806,2.4855,2.4893,2.4899,2.4935,2.4925,2.4996,2.4942,2.5041,2.4987,2.5018,2.5031,2.5035,2.5042,2.4981,2.5077,2.5243,2.5261,2.5048,2.5046,2.5044,0,2.4576,2.4667,2.4749,2.4771,2.4816,2.4855,2.4876,2.4911,2.4945,2.4991,2.5013,2.5067,2.5096,2.5138,2.5143,2.5103,2.5242,2.5188,2.5249,2.5249,2.5278,2.5276,2.5451,2.5299,2.5299,2.5298,2.5298,0,2.4712,2.4785,2.4794,2.4845,2.4926,2.4925,2.5005,2.5022,2.5054,2.5108,2.5092,2.5142,2.5146,2.5198,2.5203,2.5284,2.5297,2.5304,2.5304,2.5305,2.5304,2.5324,2.5316,2.5303,2.5302,2.5301,2.53,0,2.4837,2.4846,2.4934,2.4969,2.498,2.5038,2.5068,2.5117,2.5128,2.5196,2.5212,2.523,2.5291,2.53,2.5372,2.5375,2.5471,2.5463,2.5458,2.5457,2.5517,2.5511,2.571,2.5736,2.5567,2.5569,2.557,0,2.4922,2.4978,2.5019,2.5053,2.5076,2.5132,2.5166,2.5168,2.5204,2.5253,2.5296,2.5355,2.5402,2.5501,2.552,2.5575,2.5568,2.5634,2.5576,2.5576,2.5569,2.5565,2.5571,2.5645,2.5647,2.5648,2.565,0,2.5073,2.5075,2.5125,2.5177,2.5219,2.526,2.5299,2.5328,2.5335,2.5377,2.5439,2.5476,2.5548,2.5608,2.5662,2.5684,2.5668,2.5668,2.5685,2.5686,2.568,2.5684,2.5488,2.5663,2.5662,2.5661,2.566,2.566,2.518,2.5228,2.5265,2.5321,2.535,2.5387,2.5434,2.5451,2.5503,2.5561,2.556,2.5628,2.5665,2.5737,2.5762,2.5816,2.5794,2.5819,2.5825,2.5831,2.5837,2.5672,2.5826,2.5826,2.5825,2.5825,2.5825,0,2.533,2.5352,2.5404,2.5458,2.5503,2.5484,2.5526,2.5565,2.5625,2.5661,2.5708,2.5779,2.5836,2.5861,2.5917,2.5955,2.595,2.597,2.5967,2.5972,2.5853,2.5832,2.5974,2.5974,2.5974,2.5974,2.5974,2.5974,2.5412,2.5492,2.5499,2.5594,2.5615,2.5681,2.5707,2.5741,2.577,2.585,2.5897,2.5912,2.5944,2.6003,2.6055,2.606,2.6082,2.6106,2.6108,2.5996,2.5981,2.5966,2.5947,2.611,2.6111,2.6223,2.6224,2.6225]},{"header":{"parameterUnit":"m.s-1","parameterCategory":1,"la1":30.2991,"la2":30.254,"lo1":-89.0895,"lo2":-89.0444,"dy":0.0017,"dx":0.0017,"nx":28,"ny":28,"refTime":"2024-07-13T21:00:00:Z","depth":0,"parameterNumber":3,"parameterNumberName":"V-component_of_WINDS"},"data":[0,0,0,0,0,0,0,0,0,0,0,0,0,0,0,0,0,0,0,0,0,0,0,0,0,0,0,0,0,0,0,0,0,0,0,0,0,0,0,0,0,0,0,0,0,0,0,0,0,0,0,0,0,0,0,0,0,0,0.9563,0.9564,0,0.9609,0.961,0.961,0.9593,0.9592,0.9591,0.959,0.9639,0.9641,0.9644,0,0,0,0,0,0,0,0,0,0,0,0,0,0.9462,0.9464,0.9563,0.9564,0.9564,0.9609,0.961,0.961,0.9593,0.9592,0.959,0.9589,0.9638,0.9641,0.9644,0,0,0,0,0,0,0,0,0,0,0,0,0,0.9507,0.9464,0.9563,0.9561,0.9561,0.9609,0.961,0.9611,0.9593,0.9592,0.959,0.9589,0.9638,0.9641,0.9644,0.9698,0,0,0.9655,0.9656,0,0,0,0,0,0,0,0,0.9504,0.951,0.9561,0.9561,0.9562,0.9594,0.9592,0.964,0.9594,0.9581,0.959,0.9588,0.9625,0.963,0.9642,0.97,0.9702,0.9655,0.9657,0.9659,0.966,0,0,0,0,0,0,0,0.9501,0.9508,0.9581,0.9561,0.9562,0.9558,0.9563,0.9601,0.9612,0.9582,0.9581,0.9587,0.9625,0.9639,0.9643,0.9703,0.9655,0.9658,0.966,0.9662,0.9806,0.9808,0,0,0,0,0,0,0.9497,0.9506,0.958,0.9583,0.9528,0.9561,0.9566,0.9585,0.9611,0.9614,0.9588,0.9586,0.9634,0.9639,0.9645,0.9709,0.9659,0.9662,0.9664,0.9805,0.9807,0.9809,0,0,0,0,0,0,0.9495,0.9504,0.9578,0.9544,0.9553,0.9565,0.9586,0.9587,0.96,0.9616,0.9618,0.9599,0.9633,0.964,0.9684,0.9711,0.9664,0.9667,0.9803,0.9805,0.9808,0.9838,0,0,0,0,0,0,0.9492,0.9504,0.9524,0.9545,0.9555,0.9617,0.9587,0.9589,0.9606,0.9603,0.9627,0.9629,0.9632,0.9679,0.9688,0.9714,0.9669,0.98,0.9804,0.9807,0.9835,0.9841,0.9847,0,0,0,0,0,0.9489,0.9531,0.9525,0.9534,0.958,0.9618,0.9624,0.9626,0.9608,0.9628,0.9638,0.9629,0.9706,0.9684,0.9693,0.9722,0.9799,0.9803,0.9807,0.9832,0.984,0.9847,0,0,0,0,0,0,0.9514,0.9534,0.9527,0.9577,0.9596,0.9615,0.9641,0.9634,0.9659,0.9656,0.9657,0.9662,0.9708,0.9719,0.9694,0.9774,0.975,0.9756,0.9766,0.9773,0.9779,0.9776,0.9672,0,0,0,0,0,0.9525,0.9554,0.9569,0.9612,0.9622,0.963,0.9646,0.9645,0.9666,0.9674,0.9687,0.9707,0.9736,0.9755,0.9783,0.9836,0.9841,0.9859,0.9866,0.987,0.9876,0.9905,0.9914,0.9822,0.9822,0.9822,0,0,0.9549,0.9563,0.9581,0.9617,0.9632,0.9662,0.9637,0.967,0.9692,0.9679,0.9722,0.9732,0.9755,0.9804,0.9826,0.9814,0.9902,0.9876,0.9879,0.9882,0.991,0.9919,0.9927,0.9825,0.9824,0.9824,0,0,0.9608,0.9621,0.9658,0.9673,0.9694,0.9699,0.9708,0.9728,0.9734,0.9777,0.9767,0.9794,0.9844,0.986,0.9875,0.9939,0.9931,0.9948,0.998,1.0008,1.0016,1.0022,1.0045,1.0054,0.9953,0.9953,0.9953,0,0.9635,0.9679,0.9678,0.9711,0.9728,0.9716,0.9753,0.9768,0.9798,0.981,0.9796,0.9857,0.9872,0.9924,0.994,0.9952,0.9963,0.9946,1.0015,1.0021,1.0027,1.0049,1.0058,0.9955,0.9955,0.9955,0.9954,0,0.9711,0.9742,0.9769,0.9798,0.9817,0.9852,0.9857,0.9876,0.9873,0.988,0.9923,0.994,0.997,0.9983,0.9981,1.0035,1.0027,1.0014,0.999,1.0038,1.0059,1.0067,0.9958,0.9957,0.9957,0.9956,0,0,0.9789,0.9815,0.9825,0.9838,0.986,0.9884,0.9919,0.9948,0.9965,0.9986,1.0015,1.0057,1.0044,1.0061,1.0061,1.0085,1.0135,1.0069,1.007,1.0081,1.0197,1.0207,1.0217,1.0129,1.0131,1.0132,1.0195,0,0.985,0.991,0.991,0.9966,0.9994,0.9983,1.0013,1.003,1.0037,1.0063,1.007,1.01,1.0081,1.0091,1.0114,1.0124,1.0158,1.0119,1.0158,1.0159,1.0154,1.0228,1.0239,1.0298,1.0203,1.0204,1.0205,0,0.993,0.9952,1.0011,1.0029,1.0041,1.0068,1.0094,1.0118,1.0138,1.0141,1.0159,1.0154,1.019,1.0163,1.0213,1.0186,1.0202,1.0209,1.0211,1.0216,1.0186,1.0235,1.0316,1.0326,1.0218,1.0217,1.0216,0,0.9981,1.0026,1.0067,1.0078,1.0099,1.0119,1.0129,1.0147,1.0164,1.0187,1.0198,1.0225,1.024,1.0261,1.0264,1.0244,1.0314,1.0287,1.0318,1.0318,1.0335,1.0334,1.042,1.0343,1.0343,1.0342,1.0342,0,1.005,1.0087,1.009,1.0115,1.0156,1.0155,1.0195,1.0203,1.0219,1.0246,1.0237,1.0263,1.0265,1.0291,1.0294,1.0335,1.0341,1.0345,1.0346,1.0347,1.0347,1.0358,1.0355,1.0345,1.0344,1.0344,1.0343,0,1.0115,1.0119,1.0162,1.0179,1.0184,1.0213,1.0227,1.0252,1.0257,1.0291,1.0299,1.0308,1.0338,1.0343,1.0379,1.038,1.043,1.0425,1.0423,1.0423,1.0454,1.0451,1.0552,1.0565,1.0478,1.0479,1.0479,0,1.0159,1.0187,1.0206,1.0223,1.0234,1.0261,1.0279,1.0278,1.0296,1.032,1.0342,1.0371,1.0395,1.0444,1.0454,1.0482,1.0479,1.0512,1.0483,1.0483,1.048,1.0479,1.0482,1.0518,1.0519,1.052,1.052,0,1.0238,1.0238,1.0262,1.0288,1.0308,1.0328,1.0347,1.0361,1.0363,1.0384,1.0415,1.0433,1.0469,1.0499,1.0526,1.0537,1.053,1.0529,1.0538,1.054,1.0538,1.054,1.0439,1.0527,1.0527,1.0526,1.0526,1.0525,1.0294,1.0318,1.0335,1.0363,1.0377,1.0394,1.0418,1.0425,1.045,1.0479,1.0478,1.0512,1.053,1.0565,1.0578,1.0605,1.0594,1.0607,1.061,1.0613,1.0617,1.0532,1.061,1.0609,1.0609,1.0609,1.0609,0,1.0373,1.0383,1.0408,1.0434,1.0456,1.0445,1.0465,1.0484,1.0514,1.0531,1.0554,1.059,1.0618,1.063,1.0657,1.0677,1.0674,1.0684,1.0684,1.0686,1.0624,1.0614,1.0686,1.0686,1.0686,1.0686,1.0686,1.0686,1.0417,1.0457,1.0459,1.0505,1.0515,1.0548,1.056,1.0576,1.059,1.0629,1.0653,1.0659,1.0675,1.0703,1.0729,1.0732,1.0743,1.0755,1.0756,1.0698,1.0691,1.0683,1.0674,1.0757,1.0757,1.0816,1.0817,1.0817]}]]